Find Starlink 6345

NORAD ID: 56790 Int'l Des: 2023-078 Owner: SPXS Country: US Constellation: starlink operational
LEOCIRCULAR

当前视图

正在加载3D地球...

About Starlink 6345

Starlink 6345 (NORAD 56790) is a starlink constellation satellite (v1.5) launched May 31, 2023 by SPXS of US. It operates in LEO, CIRCULAR orbit with a mass of 305.00 kg.

关于 Starlink 6345

正在加载描述...

即将过境

Passes for default location (London). Set your location on the main map for personalized predictions.

高度历史

Loading altitude history...

两行轨道根数

1 56790U 23078Z 26193.51974809 .00000742 00000-0 69933-4 0 9998
2 56790 70.0002 349.7617 0003140 268.4745 91.6054 14.98337981172366
Epoch: Jul 12, 2026 • Age: 3 hours

当前状态

高度 577.4 km
远地点 / 近地点 N/A
速度 7.57 km/s
星下点 34.35°N, 164.45°W
发射日期 May 31, 2023
运行时间 3.1 years
类型 internet

技术详情

分类 Payload
质量 305.00 kg
干质量 290.00 kg
总质量 305.00 kg
长度 0.20 m
直径 2.80 m
跨度 9.00 m
形状 Box + pan
制造商 SPXS
平台类型 Starlink
阶段状态 In Orbit
所有者/国家 SPXS/US

Most Searched